Powrót do katalogu

STARLINK-35363

AktywnyŁącznośćVLEO
NORAD 66178·PAYLOAD·🇺🇸 United States

Wystrzelony Oct 26, 2025 z Cape Canaveral Space Force Station

Loading…

Następne Przeloty (najbliższe 24 godziny)

TLE

ŚwieżeSource: CelesTrak SupGP

Epoka: Sep 15, 2026, 03:00 UTC

1 66178C 25243B   26258.12548611 -.00000173  00000+0 -51008-5 0  2584
2 66178  53.1581  82.6970 0001053  75.6503 316.5017 15.34419561    13

Śledź STARLINK-35363 w czasie rzeczywistym z AllMySat

Download on the App Store